CDT,Max TemperatureF,Mean TemperatureF,Min TemperatureF,Max Dew PointF,MeanDew PointF,Min DewpointF,Max Humidity, Mean Humidity, Min Humidity, Max Sea Level PressureIn, Mean Sea Level PressureIn, Min Sea Level PressureIn, Max VisibilityMiles, Mean VisibilityMiles, Min VisibilityMiles, Max Wind SpeedMPH, Mean Wind SpeedMPH, Max Gust SpeedMPH,PrecipitationIn, CloudCover, Events, WindDirDegrees
2013-10-1,71,63,53,54,42,34,64,47,25,29.90,29.71,29.59,10,10,10,22,13,31,0.00,0,,236
2013-10-2,71,55,39,46,36,30,82,48,22,30.04,29.99,29.91,10,10,5,14,6,18,0.11,2,,238
2013-10-3,59,54,50,50,47,45,88,80,63,29.99,29.95,29.92,10,10,5,12,6,,0.27,7,,71
2013-10-4,57,54,51,48,47,43,88,78,71,30.09,30.06,30.00,10,10,5,16,7,22,0.05,8,,60
2013-10-5,55,52,50,50,48,45,88,83,76,30.06,29.89,29.71,10,10,5,18,12,26,0.84,8,,86
2013-10-6,55,50,46,48,46,41,88,85,77,29.73,29.67,29.62,10,8,1,12,5,,0.46,8,,310
2013-10-7,55,47,39,43,39,34,93,77,51,29.98,29.84,29.72,10,10,2,15,6,17,0.01,2,,275
2013-10-8,73,56,39,43,39,34,81,51,29,30.00,29.92,29.84,10,10,10,23,10,34,0.00,0,,183
2013-10-9,73,65,55,48,45,41,63,49,36,30.08,30.01,29.93,10,10,10,15,12,26,0.00,0,,201
2013-10-10,71,62,53,45,42,39,67,51,33,30.09,30.04,29.98,10,10,8,13,5,20,0.00,0,,174
2013-10-11,73,63,53,52,48,43,72,59,41,30.00,29.90,29.76,10,10,9,22,9,34,0.00,0,,146
2013-10-12,62,55,48,52,44,36,72,58,42,30.01,29.82,29.72,10,10,10,21,14,32,0.00,4,,208
2013-10-13,53,42,32,41,34,25,87,67,35,30.38,30.28,30.02,10,10,5,15,9,23,0.00,4,,289
2013-10-14,53,42,30,37,31,25,87,65,41,30.41,30.32,30.15,10,10,10,10,2,,0.00,1,,108
2013-10-15,50,47,44,46,42,36,93,83,62,30.14,29.84,29.70,10,7,2,16,8,28,0.87,7,,73
2013-10-16,46,40,35,41,36,28,87,78,66,29.85,29.82,29.73,10,9,3,13,6,21,0.04,6,,341
2013-10-17,50,40,30,39,35,27,93,77,58,29.83,29.77,29.73,10,10,4,9,3,,0.11,4,,254
2013-10-18,44,38,32,39,33,25,87,78,46,29.86,29.80,29.74,10,9,5,12,4,16,0.38,6,,340
2013-10-19,44,38,33,34,32,27,87,79,57,29.78,29.68,29.62,10,10,5,13,4,,0.14,6,,227
2013-10-20,42,36,30,34,30,27,93,81,61,29.74,29.70,29.66,10,8,2,9,4,,0.21,6,,193
2013-10-21,35,32,30,30,27,23,87,81,65,29.75,29.71,29.67,10,7,2,18,6,26,0.22,8,,271
2013-10-22,35,34,32,30,25,21,87,69,60,29.93,29.88,29.74,10,10,3,15,10,23,0.12,8,,312
2013-10-23,35,32,28,28,24,19,93,74,56,29.94,29.90,29.86,10,8,0,15,7,21,0.02,8,,272
2013-10-24,37,34,30,30,27,25,93,79,65,30.18,30.04,29.94,10,8,1,16,8,21,0.04,8,,279
2013-10-25,48,37,28,36,27,23,87,71,53,30.19,29.95,29.58,10,10,10,28,10,39,0.16,5,,229
2013-10-26,44,40,35,34,30,25,87,69,56,29.97,29.84,29.61,10,10,5,24,12,30,0.03,8,,315
2013-10-27,46,40,33,30,28,25,81,69,50,30.17,29.88,29.73,10,10,6,17,8,23,0.02,7,,263
2013-10-28,37,29,21,25,19,16,93,64,44,30.45,30.38,30.19,10,10,7,13,7,22,0.01,5,,67
2013-10-29,37,29,21,30,25,16,93,80,60,30.43,30.29,30.11,10,9,2,10,2,,0.03,4,,169
2013-10-30,50,42,35,46,38,30,93,87,81,30.11,29.92,29.67,10,8,3,8,3,,0.02,8,,166
2013-10-31,51,46,42,48,44,39,94,91,87,29.64,29.40,29.25,10,5,0,10,4,,0.10,8,,4